Weather History for KITH - August, 2014

Change the Weather History Date:

Thursday, August 21, 2014

  Actual Average Record
Temperature  
Mean Temperature 71 °F -  
Max Temperature 77 °F 75 °F 93 °F (1955)
Min Temperature 65 °F 51 °F 40 °F (1969)
Cooling Degree Days 6    
Growing Degree Days 21 (Base 50)    
Moisture  
Dew Point 67 °F    
Average Humidity 89    
Maximum Humidity 100    
Minimum Humidity 69    
Precipitation  
Precipitation 0.44 in - - ()
Sea Level Pressure  
Sea Level Pressure 29.99 in    
Wind  
Wind Speed 4 mph (SSE)    
Max Wind Speed 8 mph    
Max Gust Speed -    
Visibility 9 miles    
Events Rain , Thunderstorm    
Averages and records for this station are not official NWS values.
T = Trace of Precipitation, MM = Missing Value Source: NWS Daily Summary

Daily Weather History Graph

Daily Weather History Graph

Search for Another Location

Airport or City:

Trip Planner

Search our weather history database for the weather conditions in past years. The results will help you decide how hot, cold, wet, or windy it might be!

Date:

Astronomy

Aug. 21, 2014 Rise Set
Actual Time 6:19 AM EDT 7:58 PM EDT
Civil Twilight 5:49 AM EDT 8:27 PM EDT
Nautical Twilight 5:13 AM EDT 9:03 PM EDT
Astronomical Twilight 4:34 AM EDT 9:42 PM EDT
Moon 2:45 AM EDT (8/21) 5:27 PM EDT (8/21)
Length of Visible Light 14h 38m
Length of Day
13h 38m
Waning Crescent, 13% of the Moon is Illuminated
Aug 21
Waning Crescent
Aug 25
New
Sep 2
First Quarter
Sep 8
Full
Sep 15
Last Quarter

Hourly Weather History & Observations

Time (EDT) Temp. Dew Point Humidity Pressure Visibility Wind Dir Wind Speed Gust Speed Precip Events Conditions
12:30 AM 66.2 °F 66.2 °F 100% 30.00 in 8.0 mi SSE 5.8 mph - N/A   Partly Cloudy
12:56 AM 68.0 °F 65.8 °F 93% 29.99 in 9.0 mi South 5.8 mph - N/A   Mostly Cloudy
1:56 AM 68.0 °F 65.8 °F 93% 29.98 in 9.0 mi SSE 6.9 mph - N/A   Scattered Clouds
2:56 AM 66.9 °F 65.8 °F 96% 29.98 in 8.0 mi South 4.6 mph - N/A   Clear
3:56 AM 66.9 °F 64.9 °F 93% 29.97 in 8.0 mi Calm Calm - N/A   Partly Cloudy
4:56 AM 66.9 °F 65.8 °F 96% 29.97 in 9.0 mi SSE 6.9 mph - N/A   Scattered Clouds
5:56 AM 66.9 °F 64.9 °F 93% 29.99 in 9.0 mi SSE 3.5 mph - N/A   Mostly Cloudy
6:17 AM 66.2 °F 64.4 °F 94% 30.01 in 7.0 mi SE 3.5 mph - N/A   Scattered Clouds
6:56 AM 65.8 °F 64.9 °F 97% 30.01 in 7.0 mi Calm Calm - N/A   Partly Cloudy
7:41 AM 69.8 °F 66.2 °F 88% 30.03 in 10.0 mi South 5.8 mph - N/A   Overcast
7:56 AM 68.9 °F 66.9 °F 93% 30.02 in 6.0 mi SSE 4.6 mph - N/A   Overcast
8:56 AM 70.0 °F 66.9 °F 90% 30.01 in 7.0 mi South 6.9 mph - N/A   Mostly Cloudy
9:56 AM 73.9 °F 68.0 °F 82% 30.01 in 7.0 mi SSW 4.6 mph - N/A   Mostly Cloudy
10:56 AM 75.9 °F 66.9 °F 74% 30.01 in 10.0 mi Calm Calm - N/A   Mostly Cloudy
11:56 AM 77.0 °F 66.9 °F 71% 30.00 in 10.0 mi Calm Calm - N/A   Mostly Cloudy
11:59 AM 77.0 °F 66.2 °F 69% 30.01 in 10.0 mi Calm Calm - N/A Thunderstorm Thunderstorm
1:16 PM 71.6 °F 66.2 °F 83% 30.01 in 10.0 mi East 8.1 mph - 0.00 in   Mostly Cloudy
1:56 PM 73.9 °F 68.9 °F 84% 29.98 in 10.0 mi East 3.5 mph - 0.01 in   Mostly Cloudy
2:56 PM 72.9 °F 70.0 °F 91% 29.97 in 10.0 mi North - - 0.05 in Rain , Thunderstorm Light Thunderstorms and Rain
3:26 PM 69.8 °F 66.2 °F 88% 30.02 in 10.0 mi Variable 6.9 mph - 0.05 in Rain , Thunderstorm Thunderstorms and Rain
3:31 PM 69.8 °F 66.2 °F 88% 30.00 in 1.0 mi Variable 5.8 mph - 0.30 in Rain , Thunderstorm Thunderstorms and Rain
3:56 PM 70.9 °F 68.0 °F 91% 29.97 in 10.0 mi ESE 3.5 mph - 0.33 in Thunderstorm Thunderstorm
4:56 PM 72.9 °F 68.9 °F 87% 29.97 in 10.0 mi Calm Calm - 0.02 in   Partly Cloudy
5:56 PM 73.9 °F 68.9 °F 84% 29.96 in 10.0 mi SE 4.6 mph - N/A   Mostly Cloudy
6:56 PM 73.9 °F 68.9 °F 84% 29.97 in 10.0 mi SSE 3.5 mph - N/A   Scattered Clouds
7:56 PM 70.9 °F 68.9 °F 93% 29.98 in 10.0 mi Calm Calm - 0.03 in   Mostly Cloudy
8:56 PM 68.9 °F 66.9 °F 93% 29.98 in 10.0 mi South 6.9 mph - 0.00 in   Mostly Cloudy
9:56 PM 66.9 °F 65.8 °F 96% 30.00 in 10.0 mi Calm Calm - N/A   Scattered Clouds
10:56 PM 66.9 °F 64.9 °F 93% 30.00 in 10.0 mi South 3.5 mph - N/A   Mostly Cloudy